Kejimkujik, Nova Scotia

7:36 AM ADT on October 22, 2017 (GMT -0300)
Kejimkujik

Weather History for CWKG - February, 2014

Change the Weather History Date:

Sunday, February 9, 2014

  Actual Average (CYZX) Record (CYZX)
Temperature  
Mean Temperature 16 °F -  
Max Temperature 25 °F 29 °F 44 °F (2005)
Min Temperature 8 °F 12 °F 1 °F (1997)
Degree Days  
Heating Degree Days 48    
Moisture  
Dew Point 7 °F    
Average Humidity 73    
Maximum Humidity 92    
Minimum Humidity 33    
Precipitation  
Precipitation 0.25 in - - ()
Sea Level Pressure  
Sea Level Pressure 30.06 in    
Wind  
Wind Speed 2 mph ()    
Max Wind Speed 5 mph    
Max Gust Speed -    
Averages and records for this station are not official NWS values.
T = Trace of Precipitation, MM = Missing Value Source: Averaged Metar Reports

Daily Weather History Graph

Daily Weather History Graph

Search for Another Location

Airport or City:

Trip Planner

Search our weather history database for the weather conditions in past years. The results will help you decide how hot, cold, wet, or windy it might be!

Date:

Astronomy

Feb. 09, 2014 Rise Set
Actual Time 7:29 AM AST 5:41 PM AST
Civil Twilight 6:58 AM AST 6:11 PM AST
Nautical Twilight 6:24 AM AST 6:46 PM AST
Astronomical Twilight 5:50 AM AST 7:19 PM AST
Moon 1:14 PM AST (2/9) 3:34 AM AST (2/9)
Length of Visible Light 11h 12m
Length of Day
10h 12m
Waxing Gibbous, 76% of the Moon is Illuminated
Feb 9
Waxing Gibbous
Feb 14
Full
Feb 22
Last Quarter
Mar 1
New
Mar 8
First Quarter

Hourly Weather History & Observations

Time (AST) Temp. Windchill Dew Point Humidity Pressure Visibility Wind Dir Wind Speed Gust Speed Precip Events Conditions
12:00 AM 12.9 °F - 10.8 °F 91% 30.11 in - NNW 1.2 mph - N/A   Unknown
1:00 AM 12.9 °F - 10.6 °F 90% 30.09 in - NNW 2.3 mph - N/A   Unknown
2:00 AM 12 °F - 9 °F 83% 30.09 in - NNW 1.2 mph - -  
2:00 AM 11.7 °F - 9.1 °F 90% 30.09 in - NNW 1.2 mph - N/A   Unknown
3:00 AM 9.7 °F - 7.3 °F 90% 30.10 in - Calm Calm - N/A   Unknown
4:00 AM 8.8 °F - 6.8 °F 92% 30.09 in - Calm Calm - N/A   Unknown
5:00 AM 9.0 °F - 7.0 °F 92% 30.09 in - NW 1.2 mph - N/A   Unknown
6:00 AM 8.4 °F - 6.1 °F 90% 30.10 in - West 2.3 mph - N/A   Unknown
7:00 AM 9.0 °F - 6.4 °F 89% 30.10 in - NW 1.2 mph - N/A   Unknown
8:00 AM 10 °F - 7 °F 84% 30.09 in - Calm Calm - -  
8:00 AM 9.7 °F - 7.3 °F 90% 30.09 in - Calm Calm - N/A   Unknown
9:00 AM 13.8 °F - 10.9 °F 88% 30.08 in - North 1.2 mph - N/A   Unknown
10:00 AM 20.8 °F - 7.7 °F 57% 30.08 in - NE 2.3 mph - N/A   Unknown
11:00 AM 19.4 °F 12.8 °F 8.4 °F 62% 30.09 in - West 4.6 mph - N/A   Unknown
12:00 PM 20.7 °F - 8.1 °F 58% 30.08 in - NNW 2.3 mph - N/A   Unknown
1:00 PM 21.9 °F 17.2 °F 7.2 °F 53% 30.07 in - WNW 3.5 mph - N/A   Unknown
2:00 PM 24 °F - 7 °F 33% 30.03 in - West 3.5 mph - -  
2:00 PM 24.4 °F 20.1 °F 6.6 °F 47% 30.03 in - West 3.5 mph - N/A   Unknown
3:00 PM 25.7 °F 21.5 °F 7.3 °F 46% 30.00 in - West 3.5 mph - N/A   Unknown
4:00 PM 25.2 °F 20.9 °F 8.6 °F 50% 30.02 in - West 3.5 mph - N/A   Unknown
5:00 PM 21.7 °F 17.0 °F 3.4 °F 45% 30.02 in - WNW 3.5 mph - N/A   Unknown
6:00 PM 18.0 °F - 8.2 °F 66% 30.04 in - West 2.3 mph - N/A   Unknown
7:00 PM 13.6 °F - 5.5 °F 70% 30.04 in - NNW 1.2 mph - N/A   Unknown
8:00 PM 12 °F - 6 °F 66% 30.03 in - NNW 1.2 mph - -  
8:00 PM 11.7 °F - 5.7 °F 77% 30.03 in - NNW 1.2 mph - N/A   Unknown
9:00 PM 10.4 °F - 6.4 °F 84% 30.02 in - North 2.3 mph - N/A   Unknown
10:00 PM 10.0 °F - 6.3 °F 85% 30.04 in - Calm Calm - N/A   Unknown
11:00 PM 10.6 °F 4.3 °F 6.4 °F 83% 30.04 in - WNW 3.5 mph - N/A   Unknown